Other Public Products
Issued by NWS Charleston, SC

Current Version | Previous Version | Text Only | Print | Product List | Glossary Off
Versions: 1 2 3 4 5 6 7 8 9 10 11 12 13 14 15 16 17 18 19 20 21 22 23 24 25 26 27 28 29 30 31 32 33 34 35 36 37 38 39 40 41 42 43 44 45 46 47 48 49 50
000 FPUS82 KCHS 211212 OPUCHS TEST...KCHS/KSAV Gateway Observations...TEST National Weather Service Charleston SC 700 AM EST WED FEB 21 2018 NOTE: "fair" indicates few or no clouds below 12,000 feet with no significant weather and/or obstructions to visibility. SCZ050-WAZ558-NCZ071-TXZ119-213-PAZ071-DCZ001-FLZ074-172-MI076- NYZ176-178-MAZ016-IL014-TNZ027-NJZ106-GAZ044-MD014-211300- ...Gateway Observations for Charleston International... CITY SKY/WX TMP DP RH WIND PRES REMARKS Chas Airport FAIR 62 62 100 CALM 30.45R FOG 6HR MIN TEMP: 60; 6HR MAX TEMP: 67; Seattle CLEAR 29 14 53 E8 30.30S WCI 21 6HR MIN TEMP: 27; 6HR MAX TEMP: 32; Charlotte CLOUDY 66 65 96 S8 30.44R 6HR MIN TEMP: 61; 6HR MAX TEMP: 66; Dallas DFW LGT RAIN 36 33 89 N15 30.27R WCI 27 6HR MIN TEMP: 36; 6HR MAX TEMP: 40; 6HR PCP: 1.15; Dallas Love LGT RAIN 35 33 92 NW10G20 30.28R WCI 27 6HR MIN TEMP: 35; 6HR MAX TEMP: 39; 6HR PCP: 0.87; Philladelphia CLOUDY 59 59 100 SW12 30.32S FOG 6HR MIN TEMP: 51; 6HR MAX TEMP: 59; Wash National FAIR 57 56 96 S13 30.34S 6HR MIN TEMP: 56; 6HR MAX TEMP: 62; Baltimore FAIR 62 61 96 SW8 30.30F 6HR MIN TEMP: 52; 6HR MAX TEMP: 62; Miami MOCLDY 75 70 84 E14 30.33R 6HR MIN TEMP: 74; 6HR MAX TEMP: 76; Detroit RAIN 42 39 89 N12 30.22R 6HR MIN TEMP: 42; 6HR MAX TEMP: 56; 6HR PCP: 0.36; Newark CLOUDY 61 58 90 SW14G21 30.29S 6HR MIN TEMP: 56; 6HR MAX TEMP: 62; Laguardia CLOUDY 56 52 86 S7 30.29S 6HR MIN TEMP: 50; 6HR MAX TEMP: 56; J F K FOG 45 45 100 S5 30.32S VSB 1/8 6HR MIN TEMP: 44; 6HR MAX TEMP: 51; Boston Logan CLOUDY 56 54 93 SW15 30.21S 6HR MIN TEMP: 41; 6HR MAX TEMP: 56; Ft. Lauderdale FAIR 75 70 84 E16 30.33R 6HR MIN TEMP: 75; 6HR MAX TEMP: 76; Chicago O`Hare CLOUDY 29 22 75 NW15 30.39R WCI 18 6HR MIN TEMP: 29; 6HR MAX TEMP: 34; 6HR PCP: 0.04; Chicago Midway CLOUDY 31 25 78 NW15 30.38R WCI 20 6HR MIN TEMP: 31; 6HR MAX TEMP: 35; 6HR PCP: 0.12; Houston Bush CLOUDY 70 68 93 SE10 30.05R 6HR MIN TEMP: 69; 6HR MAX TEMP: 74; 6HR PCP: 0.13; Houston Hobby LGT RAIN 69 69 100 S3 30.05R 6HR MIN TEMP: 69; 6HR MAX TEMP: 73; 6HR PCP: 0.71; Nashville MOCLDY 71 62 73 S17G25 30.23R 6HR MIN TEMP: 70; 6HR MAX TEMP: 72; Atlanta CLOUDY 67 66 97 S10 30.38R 6HR MIN TEMP: 65; 6HR MAX TEMP: 68; 6HR PCP: 0.05; $$ GAZ044-118-TXZ119-213-NCZ071-DCZ001-MDZ014-506-PAZ021-071-NJZ106- NYZ176-178-MAZ106-OHZ011-021-055-MIZ076-KYZ091-ILZ014-INZ047- MNZ060-ONZ431-211300- ...Gateway Observations for Savannah International... CITY SKY/WX TMP DP RH WIND PRES REMARKS Savannah Arpt MOCLDY 63 63 100 CALM 30.43R 6HR MIN TEMP: 63; 6HR MAX TEMP: 69; Atlanta CLOUDY 67 66 97 S10 30.38R 6HR MIN TEMP: 65; 6HR MAX TEMP: 68; 6HR PCP: 0.05; Charlotte CLOUDY 66 65 96 S8 30.44R 6HR MIN TEMP: 61; 6HR MAX TEMP: 66; Dallas DFW LGT RAIN 36 33 89 N15 30.27R WCI 27 6HR MIN TEMP: 36; 6HR MAX TEMP: 40; 6HR PCP: 1.15; Houston Bush CLOUDY 70 68 93 SE10 30.05R 6HR MIN TEMP: 69; 6HR MAX TEMP: 74; 6HR PCP: 0.13; Wash National FAIR 57 56 96 S13 30.34S 6HR MIN TEMP: 56; 6HR MAX TEMP: 62; Wash Dulles FAIR 59 58 96 S10 30.33R 6HR MIN TEMP: 59; 6HR MAX TEMP: 63; Baltimore FAIR 62 61 96 SW8 30.30F 6HR MIN TEMP: 52; 6HR MAX TEMP: 62; Philadelphia CLOUDY 59 59 100 SW12 30.32S FOG 6HR MIN TEMP: 51; 6HR MAX TEMP: 59; Newark CLOUDY 61 58 90 SW14G21 30.29S 6HR MIN TEMP: 56; 6HR MAX TEMP: 62; Laguardia CLOUDY 56 52 86 S7 30.29S 6HR MIN TEMP: 50; 6HR MAX TEMP: 56; J F K FOG 45 45 100 S5 30.32S VSB 1/8 6HR MIN TEMP: 44; 6HR MAX TEMP: 51; Boston CLOUDY 56 54 93 SW15 30.21S 6HR MIN TEMP: 41; 6HR MAX TEMP: 56; Pittsburg MOCLDY 67 52 58 S12 30.18R 6HR MIN TEMP: 61; 6HR MAX TEMP: 67; Akron CLOUDY 66 52 60 SW16 30.13R 6HR MIN TEMP: 65; 6HR MAX TEMP: 68; Cleveland LGT RAIN 57 55 93 NW14 30.19R FOG 6HR MIN TEMP: 57; 6HR MAX TEMP: 69; 6HR PCP: 0.06; Cincinnati CLOUDY 57 56 96 N7 30.20R 6HR MIN TEMP: 57; 6HR MAX TEMP: 68; 6HR PCP: 0.07; Columbus CLOUDY 64 56 76 NW21G26 30.18R Detroit RAIN 42 39 89 N12 30.22R 6HR MIN TEMP: 42; 6HR MAX TEMP: 56; 6HR PCP: 0.36; Chicago O`Hare CLOUDY 29 22 75 NW15 30.39R WCI 18 6HR MIN TEMP: 29; 6HR MAX TEMP: 34; 6HR PCP: 0.04; Minneapolis FAIR 3 -1 83 W7 30.53R WCI -9 6HR MIN TEMP: 3; 6HR MAX TEMP: 8; Indianapolis LGT RAIN 41 39 93 NW14 30.30R 6HR MIN TEMP: 41; 6HR MAX TEMP: 69; 6HR PCP: 0.79; Toronto Canada NOT AVBL $$

USA.gov is the U.S. government's official web portal to all federal, state and local government web resources and services.